Regional Weather Roundup
Issued by NWS

Home | Current Version | Previous Version | Graphics & Text | Print | Product List | Glossary On
Versions: 1 2 3 4 5 6 7 8 9 10 11 12 13 14 15 16 17 18 19 20 21 22 23 24 25 26 27 28 29 30 31 32 33 34 35 36 37 38 39 40 41 42 43 44 45 46 47 48 49 50
000
ASUS44 KMEG 210800
RWRTN
TENNESSEE HOURLY STATE WEATHER ROUNDUP
NATIONAL WEATHER SERVICE MEMPHIS TN
300 AM CDT TUE APR 21 2015

TNZ002-004-019-021-049-052-054-088>092-210900-
WEST TENNESSEE

CITY           SKY/WX    TMP DP  RH WIND       PRES   REMARKS
MEMPHIS INTL   CLEAR     50  36  58 CALM      29.97F
NWS MEMPHIS      N/A     44 N/A N/A MISG        N/A
JACKSON        CLEAR     45  39  79 SW3       29.95S
DYERSBURG      CLEAR     45  30  57 CALM      29.96S
UNION CITY     CLEAR     46  32  57 W5        29.92S
PARIS            N/A     39  37  93 CALM      29.93S
LEXINGTON      CLEAR     43  39  87 CALM      29.93S
SAVANNAH       CLEAR     43  32  65 CALM      29.96S
$$

TNZ008-025-027-028-033-062-065-066-210900-
NORTH MIDDLE TENNESSEE

CITY           SKY/WX    TMP DP  RH WIND       PRES   REMARKS
NASHVILLE      CLEAR     49  42  77 NW3       29.92S
CLARKSVILLE    CLEAR     45  43  93 S3        29.91F
COOKEVILLE     MOCLDY    45  45 100 CALM      29.91R
CROSSVILLE     CLEAR     44  40  85 SW3       29.91S
$$

TNZ061-075-076-078-094-096-097-210900-
SOUTH MIDDLE TENNESSEE

CITY           SKY/WX    TMP DP  RH WIND       PRES   REMARKS
FAYETTEVILLE   CLEAR     45  41  87 W3        29.93S
TULLAHOMA      CLEAR     41  37  87 CALM      29.92S
WINCHESTER     CLEAR     43  41  93 CALM      29.93R
MCMINNVILLE    CLEAR     45  43  93 W3        29.92S
COLUMBIA       CLEAR     46  32  57 CALM      29.91S
SHELBYVILLE    CLEAR     43  43 100 CALM      29.93S
$$

TNZ017-018-042-046-047-210900-
NORTHEAST TENNESSEE

CITY           SKY/WX    TMP DP  RH WIND       PRES   REMARKS
TRI CITIES     MOCLDY    48  44  86 SW7       29.87S
ELIZABETHTON   MOSUNNY   48  43  81 W6        29.87R
$$

TNZ012-013-036-069-073-074-210900-
CENTRAL EAST TENNESSEE

CITY           SKY/WX    TMP DP  RH WIND       PRES   REMARKS
KNOXVILLE      PTCLDY    50  44  80 S5        29.89S
OAK RIDGE      MOCLDY    50  45  83 S3        29.91S
GATLINBURG     SUNNY     52  41  66 SW6       29.89S
$$

TNZ083-085-099-210900-
SOUTHEAST TENNESSEE

CITY           SKY/WX    TMP DP  RH WIND       PRES   REMARKS
CHATTANOOGA    CLEAR     49  44  83 CALM      29.92F
$$

SKY/WX REPORTED AS FAIR MEANS FEW OR NO CLOUDS BELOW
12 THOUSAND FEET.




USA.gov is the U.S. government's official web portal to all federal, state and local government web resources and services.